TSC466 TXKF-CYHZ

Flight info

Callsign TSC466
Flight time 2h 9m
Altitude 37000
Route SOMRR1 BOVIC/M077F390 DCT MEANO DCT AVAST/N0452F390 DCT ELERI PEGGY5
Aircraft A20N/M-SDE2E3FGHIRWXY/LB1

Departure

Time 2026-04-25 03:04
Airport L.F. Wade International Airport (TXKF)

Arrival

Time 2026-04-25 05:14
Airport Halifax / Stanfield International Airport (CYHZ)
Time Latitude Longitude Altitude Speed Heading
2026-04-25 02:44 32.36269 -64.70312 4 ft 0 kts 249°
2026-04-25 02:52 32.36269 -64.70310 4 ft 2 kts 249°
2026-04-25 02:52 32.36273 -64.70299 4 ft 2 kts 249°
2026-04-25 02:53 32.36277 -64.70285 4 ft 2 kts 249°
2026-04-25 02:53 32.36282 -64.70270 4 ft 2 kts 249°
2026-04-25 02:53 32.36286 -64.70257 6 ft 2 kts 249°
2026-04-25 02:53 32.36291 -64.70243 4 ft 2 kts 249°
2026-04-25 02:54 32.36295 -64.70229 4 ft 2 kts 249°
2026-04-25 02:54 32.36299 -64.70217 5 ft 0 kts 249°
2026-04-25 02:57 32.36299 -64.70216 4 ft 2 kts 249°
2026-04-25 02:57 32.36298 -64.70219 4 ft 2 kts 249°
2026-04-25 02:57 32.36289 -64.70228 1 ft 1 kts 193°
2026-04-25 02:57 32.36282 -64.70225 4 ft 1 kts 154°
2026-04-25 02:58 32.36280 -64.70218 4 ft 1 kts 117°
2026-04-25 02:58 32.36274 -64.70197 7 ft 4 kts 109°
2026-04-25 02:58 32.36261 -64.70152 4 ft 7 kts 106°
2026-04-25 02:58 32.36280 -64.70096 5 ft 9 kts 63°
2026-04-25 02:59 32.36312 -64.70019 4 ft 12 kts 63°
2026-04-25 02:59 32.36354 -64.69921 4 ft 15 kts 63°
2026-04-25 02:59 32.36405 -64.69801 5 ft 18 kts 63°
2026-04-25 02:59 32.36463 -64.69657 4 ft 21 kts 65°
2026-04-25 03:00 32.36527 -64.69493 4 ft 24 kts 69°
2026-04-25 03:00 32.36589 -64.69300 4 ft 26 kts 67°
2026-04-25 03:00 32.36664 -64.69094 5 ft 29 kts 66°
2026-04-25 03:00 32.36742 -64.68873 4 ft 29 kts 83°
2026-04-25 03:01 32.36683 -64.68666 5 ft 27 kts 104°
2026-04-25 03:01 32.36648 -64.68435 5 ft 30 kts 100°
2026-04-25 03:01 32.36608 -64.68184 5 ft 32 kts 101°
2026-04-25 03:01 32.36560 -64.67916 6 ft 35 kts 103°
2026-04-25 03:02 32.36507 -64.67629 4 ft 37 kts 94°
2026-04-25 03:02 32.36450 -64.67331 5 ft 38 kts 104°
2026-04-25 03:02 32.36391 -64.67020 6 ft 39 kts 103°
2026-04-25 03:02 32.36338 -64.66703 6 ft 39 kts 95°
2026-04-25 03:03 32.36282 -64.66398 8 ft 30 kts 110°
2026-04-25 03:03 32.36202 -64.66336 7 ft 14 kts 190°
2026-04-25 03:03 32.36153 -64.66405 7 ft 11 kts 280°
2026-04-25 03:03 32.36181 -64.66581 7 ft 54 kts 281°
2026-04-25 03:04 32.36290 -64.67344 5 ft 130 kts 278°
2026-04-25 03:04 32.36548 -64.68514 495 ft 146 kts 281°
2026-04-25 03:04 32.36822 -64.69617 1629 ft 136 kts 284°
2026-04-25 03:05 32.37327 -64.71675 3567 ft 132 kts 282°
2026-04-25 03:05 32.37452 -64.72821 4121 ft 149 kts 277°
2026-04-25 03:05 32.37569 -64.74092 4712 ft 164 kts 278°
2026-04-25 03:05 32.37749 -64.75514 5168 ft 185 kts 280°
2026-04-25 03:06 32.37993 -64.77108 5555 ft 210 kts 281°
2026-04-25 03:06 32.38289 -64.78856 6229 ft 220 kts 282°
2026-04-25 03:06 32.38766 -64.80590 7011 ft 225 kts 295°
2026-04-25 03:06 32.39598 -64.82171 7852 ft 229 kts 307°
2026-04-25 03:07 32.40699 -64.83569 8646 ft 236 kts 311°
2026-04-25 03:07 32.41885 -64.85047 9116 ft 257 kts 310°
2026-04-25 03:07 32.43120 -64.86604 9987 ft 262 kts 310°
2026-04-25 03:07 32.44399 -64.88224 10530 ft 280 kts 310°
2026-04-25 03:08 32.45781 -64.89980 10867 ft 303 kts 310°
2026-04-25 03:08 32.47259 -64.91858 11366 ft 316 kts 310°
2026-04-25 03:08 32.48769 -64.93768 12213 ft 320 kts 310°
2026-04-25 03:08 32.50306 -64.95714 12973 ft 326 kts 310°
2026-04-25 03:09 32.51865 -64.97690 13770 ft 331 kts 310°
2026-04-25 03:09 32.53443 -64.99693 14508 ft 334 kts 310°
2026-04-25 03:09 32.54948 -65.01800 15235 ft 336 kts 306°
2026-04-25 03:09 32.56404 -65.03990 15913 ft 341 kts 306°
2026-04-25 03:10 32.57869 -65.06179 16634 ft 344 kts 306°
2026-04-25 03:10 32.59367 -65.08415 17315 ft 349 kts 306°
2026-04-25 03:10 32.60888 -65.10689 17962 ft 354 kts 306°
2026-04-25 03:10 32.62425 -65.12986 18608 ft 357 kts 306°
2026-04-25 03:11 32.63974 -65.15305 19237 ft 359 kts 306°
2026-04-25 03:11 32.65531 -65.17636 19880 ft 361 kts 305°
2026-04-25 03:11 32.67097 -65.19983 20505 ft 364 kts 305°
2026-04-25 03:11 32.68675 -65.22350 21152 ft 367 kts 305°
2026-04-25 03:12 32.70256 -65.24722 21865 ft 366 kts 305°
2026-04-25 03:12 32.71839 -65.27106 22465 ft 369 kts 304°
2026-04-25 03:12 32.73427 -65.29523 23055 ft 372 kts 304°
2026-04-25 03:12 32.75023 -65.31961 23604 ft 375 kts 304°
2026-04-25 03:13 32.76631 -65.34420 24092 ft 378 kts 304°
2026-04-25 03:13 32.78246 -65.36888 24579 ft 380 kts 304°
2026-04-25 03:13 32.79880 -65.39384 25051 ft 383 kts 304°
2026-04-25 03:13 32.81521 -65.41893 25513 ft 386 kts 304°
2026-04-25 03:14 32.83176 -65.44424 25957 ft 388 kts 304°
2026-04-25 03:14 32.84834 -65.46962 26400 ft 391 kts 304°
2026-04-25 03:14 32.86508 -65.49523 26833 ft 393 kts 304°
2026-04-25 03:14 32.88206 -65.52088 27256 ft 396 kts 304°
2026-04-25 03:15 32.89926 -65.54670 27665 ft 399 kts 304°
2026-04-25 03:15 32.91630 -65.57226 28052 ft 401 kts 304°
2026-04-25 03:15 32.93389 -65.59871 28459 ft 403 kts 304°
2026-04-25 03:15 32.95113 -65.62468 28797 ft 406 kts 304°
2026-04-25 03:16 32.96868 -65.65117 29143 ft 409 kts 304°
2026-04-25 03:16 32.98634 -65.67784 29497 ft 411 kts 304°
2026-04-25 03:16 33.00409 -65.70466 29850 ft 413 kts 304°
2026-04-25 03:16 33.02192 -65.73164 30175 ft 415 kts 304°
2026-04-25 03:17 33.03983 -65.75874 30500 ft 417 kts 304°
2026-04-25 03:17 33.05771 -65.78578 30977 ft 415 kts 304°
2026-04-25 03:17 33.07554 -65.81278 31395 ft 414 kts 304°
2026-04-25 03:17 33.09336 -65.83981 31803 ft 413 kts 304°
2026-04-25 03:18 33.11108 -65.86671 32232 ft 411 kts 303°
2026-04-25 03:18 33.12871 -65.89350 32657 ft 410 kts 303°
2026-04-25 03:18 33.14626 -65.92019 33077 ft 408 kts 303°
2026-04-25 03:18 33.16374 -65.94678 33471 ft 407 kts 303°
2026-04-25 03:19 33.18116 -65.97331 33856 ft 405 kts 303°
2026-04-25 03:19 33.19851 -65.99974 34194 ft 404 kts 303°
2026-04-25 03:19 33.21581 -66.02612 34504 ft 403 kts 303°
2026-04-25 03:19 33.23266 -66.05172 34787 ft 403 kts 304°
2026-04-25 03:20 33.25211 -66.07589 35051 ft 408 kts 313°
2026-04-25 03:20 33.27512 -66.09637 35307 ft 416 kts 322°
2026-04-25 03:20 33.30109 -66.11224 35558 ft 424 kts 331°
2026-04-25 03:20 33.32901 -66.12304 35807 ft 430 kts 336°
2026-04-25 03:21 33.35818 -66.13284 36041 ft 429 kts 336°
2026-04-25 03:21 33.38648 -66.14243 36392 ft 427 kts 336°
2026-04-25 03:21 33.41491 -66.15210 36681 ft 425 kts 336°
2026-04-25 03:21 33.44339 -66.16183 36901 ft 425 kts 336°
2026-04-25 03:22 33.47175 -66.17153 37095 ft 425 kts 336°
2026-04-25 03:22 33.50016 -66.18126 37317 ft 424 kts 336°
2026-04-25 03:22 33.52854 -66.19097 37513 ft 424 kts 336°
2026-04-25 03:22 33.55691 -66.20068 37716 ft 424 kts 336°
2026-04-25 03:23 33.58524 -66.21038 37907 ft 423 kts 335°
2026-04-25 03:23 33.61357 -66.22009 37938 ft 423 kts 335°
2026-04-25 03:23 33.67008 -66.23946 37943 ft 422 kts 335°
2026-04-25 03:24 33.72650 -66.25884 37932 ft 422 kts 336°
2026-04-25 03:24 33.78288 -66.27848 37938 ft 421 kts 335°
2026-04-25 03:25 33.83911 -66.29838 37937 ft 421 kts 335°
2026-04-25 03:25 33.89499 -66.31811 37949 ft 421 kts 335°
2026-04-25 03:26 33.95123 -66.33798 37946 ft 421 kts 335°
2026-04-25 03:26 34.00750 -66.35787 37939 ft 421 kts 335°
2026-04-25 03:27 34.06365 -66.37775 37939 ft 421 kts 335°
2026-04-25 03:27 34.11977 -66.39764 37935 ft 420 kts 335°
2026-04-25 03:28 34.17581 -66.41753 37931 ft 418 kts 335°
2026-04-25 03:28 34.23155 -66.43734 37932 ft 418 kts 335°
2026-04-25 03:29 34.28734 -66.45722 37930 ft 418 kts 335°
2026-04-25 03:29 34.34323 -66.47713 37928 ft 418 kts 335°
2026-04-25 03:30 34.39901 -66.49705 37934 ft 418 kts 335°
2026-04-25 03:30 34.45472 -66.51696 37937 ft 418 kts 335°
2026-04-25 03:31 34.51054 -66.53694 37940 ft 418 kts 335°
2026-04-25 03:31 34.56626 -66.55691 37935 ft 417 kts 335°
2026-04-25 03:32 34.62199 -66.57691 37931 ft 417 kts 335°
2026-04-25 03:32 34.67723 -66.59677 37939 ft 417 kts 335°
2026-04-25 03:33 34.73287 -66.61682 37937 ft 417 kts 335°
2026-04-25 03:33 34.78849 -66.63687 37939 ft 417 kts 335°
2026-04-25 03:34 34.84411 -66.65670 37933 ft 418 kts 338°
2026-04-25 03:34 34.90213 -66.66867 37930 ft 428 kts 347°
2026-04-25 03:35 34.96184 -66.67208 37939 ft 427 kts 348°
2026-04-25 03:35 35.01112 -66.67482 37941 ft 428 kts 348°
2026-04-25 03:36 35.07065 -66.67810 37943 ft 428 kts 348°
2026-04-25 03:36 35.13011 -66.68129 37943 ft 428 kts 348°
2026-04-25 03:37 35.19947 -66.68499 37936 ft 425 kts 349°
2026-04-25 03:37 35.24850 -66.68761 37923 ft 423 kts 348°
2026-04-25 03:38 35.30724 -66.69078 37938 ft 424 kts 348°
2026-04-25 03:38 35.36649 -66.69401 37941 ft 426 kts 349°
2026-04-25 03:39 35.42554 -66.69716 37944 ft 422 kts 349°
2026-04-25 03:39 35.48420 -66.70033 37946 ft 423 kts 349°
2026-04-25 03:40 35.54301 -66.70351 37947 ft 423 kts 349°
2026-04-25 03:40 35.60183 -66.70669 37949 ft 423 kts 349°
2026-04-25 03:41 35.66047 -66.70987 37949 ft 420 kts 349°
2026-04-25 03:41 35.71887 -66.71304 37952 ft 421 kts 349°
2026-04-25 03:42 35.77740 -66.71623 37949 ft 421 kts 349°
2026-04-25 03:42 35.83589 -66.71942 37949 ft 421 kts 349°
2026-04-25 03:43 35.89385 -66.72256 37956 ft 418 kts 349°
2026-04-25 03:43 35.95198 -66.72575 37954 ft 419 kts 349°
2026-04-25 03:44 36.01021 -66.72894 37955 ft 419 kts 349°
2026-04-25 03:44 36.06843 -66.73213 37956 ft 419 kts 349°
2026-04-25 03:45 36.12666 -66.73532 37956 ft 419 kts 349°
2026-04-25 03:45 36.18483 -66.73852 37959 ft 419 kts 349°
2026-04-25 03:46 36.24306 -66.74173 37957 ft 419 kts 349°
2026-04-25 03:46 36.30130 -66.74494 37957 ft 419 kts 349°
2026-04-25 03:47 36.35955 -66.74815 37964 ft 419 kts 349°
2026-04-25 03:47 36.41781 -66.75137 37974 ft 419 kts 349°
2026-04-25 03:48 36.47600 -66.75459 37966 ft 419 kts 349°
2026-04-25 03:48 36.53383 -66.75780 37962 ft 418 kts 349°
2026-04-25 03:49 36.59212 -66.76104 37964 ft 420 kts 349°
2026-04-25 03:49 36.65040 -66.76428 37964 ft 419 kts 349°
2026-04-25 03:50 36.70868 -66.76752 37970 ft 419 kts 349°
2026-04-25 03:50 36.76688 -66.77077 37966 ft 418 kts 349°
2026-04-25 03:51 36.82505 -66.77402 37971 ft 418 kts 349°
2026-04-25 03:51 36.88313 -66.77727 37968 ft 418 kts 349°
2026-04-25 03:52 36.94121 -66.78052 37966 ft 417 kts 349°
2026-04-25 03:52 36.99925 -66.78378 37964 ft 417 kts 349°
2026-04-25 03:53 37.05726 -66.78705 37980 ft 417 kts 349°
2026-04-25 03:53 37.11528 -66.79031 37974 ft 417 kts 349°
2026-04-25 03:54 37.17321 -66.79357 37970 ft 416 kts 349°
2026-04-25 03:54 37.23107 -66.79684 38007 ft 416 kts 349°
2026-04-25 03:55 37.28898 -66.80013 37980 ft 416 kts 349°
2026-04-25 03:55 37.34683 -66.80340 37977 ft 416 kts 349°
2026-04-25 03:56 37.40467 -66.80633 37975 ft 418 kts 352°
2026-04-25 03:56 37.46267 -66.80055 38003 ft 428 kts
2026-04-25 03:57 37.52121 -66.78243 37987 ft 439 kts 10°
2026-04-25 03:57 37.57930 -66.75886 37970 ft 438 kts
2026-04-25 03:58 37.63744 -66.73545 37990 ft 439 kts
2026-04-25 03:58 37.69565 -66.71187 37979 ft 440 kts 10°
2026-04-25 03:59 37.75393 -66.68816 37984 ft 440 kts 10°
2026-04-25 03:59 37.81222 -66.66438 37988 ft 441 kts 10°
2026-04-25 04:00 37.87063 -66.64054 38013 ft 442 kts 10°
2026-04-25 04:00 37.92932 -66.61657 37989 ft 443 kts 11°
2026-04-25 04:01 37.98802 -66.59251 37996 ft 444 kts 11°
2026-04-25 04:01 38.04680 -66.56837 38002 ft 444 kts 10°
2026-04-25 04:02 38.10574 -66.54415 37994 ft 445 kts 11°
2026-04-25 04:02 38.16466 -66.51987 37995 ft 445 kts 11°
2026-04-25 04:03 38.22319 -66.49572 37990 ft 445 kts 11°
2026-04-25 04:03 38.28204 -66.47140 37990 ft 445 kts 11°
2026-04-25 04:04 38.34100 -66.44699 37990 ft 445 kts 11°
2026-04-25 04:04 38.39991 -66.42257 37990 ft 445 kts 11°
2026-04-25 04:05 38.45876 -66.39812 38011 ft 445 kts 11°
2026-04-25 04:05 38.51770 -66.37359 37993 ft 445 kts 11°
2026-04-25 04:06 38.57661 -66.34904 37994 ft 445 kts 11°
2026-04-25 04:06 38.63549 -66.32445 37991 ft 445 kts 11°
2026-04-25 04:07 38.69365 -66.30011 37986 ft 445 kts 11°
2026-04-25 04:07 38.75199 -66.27560 37987 ft 440 kts 11°
2026-04-25 04:08 38.81023 -66.25118 37988 ft 441 kts 11°
2026-04-25 04:08 38.86840 -66.22673 37985 ft 443 kts 10°
2026-04-25 04:09 38.92699 -66.20203 37986 ft 440 kts 10°
2026-04-25 04:09 38.98493 -66.17761 37983 ft 441 kts 10°
2026-04-25 04:10 39.04331 -66.15294 38021 ft 441 kts 10°
2026-04-25 04:10 39.10110 -66.12843 37988 ft 436 kts 10°
2026-04-25 04:11 39.18780 -66.09170 37988 ft 438 kts 10°
2026-04-25 04:12 39.24567 -66.06709 38006 ft 437 kts 10°
2026-04-25 04:12 39.30313 -66.04259 37985 ft 435 kts 10°
2026-04-25 04:13 39.36063 -66.01808 37991 ft 435 kts 10°
2026-04-25 04:13 39.41816 -65.99350 37990 ft 435 kts 10°
2026-04-25 04:14 39.47550 -65.96893 37982 ft 433 kts 10°
2026-04-25 04:14 39.53267 -65.94442 37978 ft 432 kts 10°
2026-04-25 04:15 39.58972 -65.91991 37972 ft 433 kts 10°
2026-04-25 04:15 39.64653 -65.89548 37988 ft 433 kts 10°
2026-04-25 04:16 39.70366 -65.87085 37983 ft 433 kts 10°
2026-04-25 04:16 39.76082 -65.84616 37976 ft 433 kts 10°
2026-04-25 04:17 39.81800 -65.82143 37989 ft 433 kts 10°
2026-04-25 04:17 39.87520 -65.79665 37981 ft 433 kts 11°
2026-04-25 04:18 39.93241 -65.77181 37980 ft 433 kts 11°
2026-04-25 04:18 39.98956 -65.74696 37979 ft 433 kts 11°
2026-04-25 04:19 40.04672 -65.72208 37970 ft 433 kts 11°
2026-04-25 04:19 40.10392 -65.69711 37970 ft 433 kts 11°
2026-04-25 04:20 40.16114 -65.67209 37970 ft 433 kts 11°
2026-04-25 04:20 40.21832 -65.64704 37970 ft 433 kts 11°
2026-04-25 04:21 40.27556 -65.62193 37971 ft 434 kts 11°
2026-04-25 04:21 40.33273 -65.59679 37960 ft 434 kts 11°
2026-04-25 04:22 40.38988 -65.57166 37972 ft 439 kts 11°
2026-04-25 04:22 40.44795 -65.54605 37971 ft 440 kts 11°
2026-04-25 04:23 40.50595 -65.52038 37975 ft 440 kts 11°
2026-04-25 04:23 40.55461 -65.49884 37985 ft 440 kts 11°
2026-04-25 04:24 40.61227 -65.47328 37968 ft 440 kts 11°
2026-04-25 04:24 40.67030 -65.44749 37965 ft 440 kts 11°
2026-04-25 04:25 40.72826 -65.42169 37999 ft 440 kts 12°
2026-04-25 04:25 40.78586 -65.39603 37973 ft 440 kts 12°
2026-04-25 04:26 40.84381 -65.37013 37979 ft 439 kts 12°
2026-04-25 04:26 40.90163 -65.34425 37960 ft 439 kts 12°
2026-04-25 04:27 40.95945 -65.31833 37968 ft 438 kts 12°
2026-04-25 04:27 41.01711 -65.29242 37972 ft 438 kts 12°
2026-04-25 04:28 41.07480 -65.26646 37948 ft 438 kts 12°
2026-04-25 04:28 41.13250 -65.24045 37946 ft 437 kts 12°
2026-04-25 04:29 41.19005 -65.21445 37944 ft 437 kts 12°
2026-04-25 04:29 41.24764 -65.18839 37944 ft 437 kts 12°
2026-04-25 04:30 41.30524 -65.16229 37939 ft 438 kts 12°
2026-04-25 04:30 41.36287 -65.13611 37942 ft 438 kts 12°
2026-04-25 04:31 41.42014 -65.11004 37948 ft 438 kts 12°
2026-04-25 04:31 41.47789 -65.08373 37945 ft 439 kts 12°
2026-04-25 04:32 41.53570 -65.05731 37943 ft 440 kts 12°
2026-04-25 04:32 41.59360 -65.03080 37947 ft 440 kts 12°
2026-04-25 04:33 41.65157 -65.00423 37958 ft 441 kts 13°
2026-04-25 04:33 41.70960 -64.97756 37962 ft 441 kts 13°
2026-04-25 04:34 41.76776 -64.95080 37954 ft 442 kts 13°
2026-04-25 04:34 41.82602 -64.92398 37958 ft 443 kts 13°
2026-04-25 04:35 41.88416 -64.89714 37962 ft 443 kts 13°
2026-04-25 04:35 41.94135 -64.86487 37963 ft 449 kts 22°
2026-04-25 04:36 41.99619 -64.82418 37966 ft 451 kts 23°
2026-04-25 04:36 42.05124 -64.78354 37967 ft 451 kts 23°
2026-04-25 04:37 42.10617 -64.74273 37965 ft 451 kts 23°
2026-04-25 04:37 42.16086 -64.70191 37956 ft 446 kts 24°
2026-04-25 04:38 42.21511 -64.66130 37956 ft 447 kts 24°
2026-04-25 04:38 42.26948 -64.62054 37957 ft 447 kts 24°
2026-04-25 04:39 42.32385 -64.57971 37962 ft 447 kts 24°
2026-04-25 04:39 42.37803 -64.53892 37959 ft 447 kts 24°
2026-04-25 04:40 42.43231 -64.49797 37955 ft 447 kts 24°
2026-04-25 04:40 42.48660 -64.45695 37965 ft 447 kts 25°
2026-04-25 04:41 42.54147 -64.41746 37963 ft 444 kts 19°
2026-04-25 04:41 42.59918 -64.39163 37954 ft 438 kts
2026-04-25 04:42 42.65914 -64.38045 37954 ft 434 kts
2026-04-25 04:42 42.71942 -64.37311 37949 ft 434 kts
2026-04-25 04:43 42.77960 -64.36572 37951 ft 434 kts
2026-04-25 04:43 42.83981 -64.35845 37944 ft 434 kts
2026-04-25 04:44 42.89991 -64.35120 37952 ft 434 kts
2026-04-25 04:44 42.96010 -64.34392 37962 ft 434 kts
2026-04-25 04:45 43.02029 -64.33665 37956 ft 435 kts
2026-04-25 04:45 43.08055 -64.32934 37955 ft 435 kts
2026-04-25 04:46 43.14047 -64.32205 37958 ft 435 kts
2026-04-25 04:46 43.20077 -64.31471 37970 ft 435 kts
2026-04-25 04:47 43.26108 -64.30735 37959 ft 435 kts
2026-04-25 04:47 43.32146 -64.29996 37955 ft 435 kts
2026-04-25 04:48 43.38181 -64.29257 37966 ft 435 kts
2026-04-25 04:48 43.44228 -64.28515 37966 ft 436 kts
2026-04-25 04:49 43.50274 -64.27771 37967 ft 436 kts
2026-04-25 04:49 43.56313 -64.27027 37968 ft 436 kts
2026-04-25 04:50 43.62381 -64.26280 37559 ft 439 kts
2026-04-25 04:50 43.65433 -64.25903 36895 ft 442 kts
2026-04-25 04:50 43.68516 -64.25522 36017 ft 447 kts
2026-04-25 04:50 43.71632 -64.25136 35119 ft 451 kts
2026-04-25 04:51 43.74723 -64.24753 34310 ft 453 kts
2026-04-25 04:51 43.77900 -64.24358 33433 ft 453 kts
2026-04-25 04:51 43.81038 -64.23968 32571 ft 451 kts
2026-04-25 04:51 43.84160 -64.23579 31726 ft 450 kts
2026-04-25 04:52 43.87234 -64.23197 30882 ft 449 kts
2026-04-25 04:52 43.90384 -64.22805 30015 ft 448 kts
2026-04-25 04:52 43.93490 -64.22419 28999 ft 447 kts
2026-04-25 04:52 43.96538 -64.22041 28199 ft 442 kts
2026-04-25 04:53 43.99586 -64.21663 27474 ft 437 kts
2026-04-25 04:53 44.02591 -64.21289 26750 ft 431 kts
2026-04-25 04:53 44.05565 -64.20918 26027 ft 426 kts
2026-04-25 04:53 44.08504 -64.20550 25332 ft 422 kts
2026-04-25 04:54 44.11407 -64.20186 24672 ft 417 kts
2026-04-25 04:54 44.14279 -64.19826 24006 ft 412 kts
2026-04-25 04:54 44.17131 -64.19468 23327 ft 408 kts
2026-04-25 04:54 44.19944 -64.19113 22627 ft 403 kts
2026-04-25 04:55 44.22716 -64.18761 21928 ft 397 kts
2026-04-25 04:55 44.25451 -64.18413 21222 ft 393 kts
2026-04-25 04:55 44.28163 -64.18069 20526 ft 388 kts
2026-04-25 04:55 44.30824 -64.17733 20086 ft 378 kts
2026-04-25 04:56 44.33396 -64.17408 19824 ft 365 kts
2026-04-25 04:56 44.35881 -64.17093 19565 ft 354 kts
2026-04-25 04:56 44.38334 -64.16751 19283 ft 356 kts 12°
2026-04-25 04:56 44.40698 -64.15687 18620 ft 359 kts 28°
2026-04-25 04:57 44.42711 -64.13621 17836 ft 362 kts 45°
2026-04-25 04:57 44.44160 -64.10760 17139 ft 361 kts 59°
2026-04-25 04:57 44.45321 -64.07648 16437 ft 359 kts 60°
2026-04-25 04:57 44.46455 -64.04551 15726 ft 357 kts 60°
2026-04-25 04:58 44.47590 -64.01474 15016 ft 355 kts 60°
2026-04-25 04:58 44.48730 -63.98418 14316 ft 353 kts 59°
2026-04-25 04:58 44.49873 -63.95379 13605 ft 353 kts 59°
2026-04-25 04:58 44.51009 -63.92365 12847 ft 346 kts 59°
2026-04-25 04:59 44.52115 -63.89434 12199 ft 338 kts 59°
2026-04-25 04:59 44.53201 -63.86555 11532 ft 329 kts 59°
2026-04-25 04:59 44.54252 -63.83766 10881 ft 319 kts 59°
2026-04-25 04:59 44.55274 -63.81050 10251 ft 311 kts 59°
2026-04-25 05:00 44.56240 -63.78475 10001 ft 292 kts 59°
2026-04-25 05:00 44.57155 -63.76036 9762 ft 274 kts 59°
2026-04-25 05:00 44.58030 -63.73704 9268 ft 267 kts 59°
2026-04-25 05:00 44.58875 -63.71449 9002 ft 259 kts 59°
2026-04-25 05:01 44.59718 -63.69207 8937 ft 258 kts 59°
2026-04-25 05:01 44.60536 -63.67022 8877 ft 248 kts 59°
2026-04-25 05:01 44.61323 -63.64918 8801 ft 238 kts 59°
2026-04-25 05:01 44.62071 -63.62912 8703 ft 225 kts 59°
2026-04-25 05:02 44.62775 -63.61025 8587 ft 212 kts 58°
2026-04-25 05:02 44.63436 -63.59251 8479 ft 199 kts 58°
2026-04-25 05:02 44.64060 -63.57577 8336 ft 189 kts 58°
2026-04-25 05:02 44.64675 -63.55937 7937 ft 192 kts 58°
2026-04-25 05:03 44.65319 -63.54229 7326 ft 205 kts 58°
2026-04-25 05:03 44.66018 -63.52373 6480 ft 225 kts 58°
2026-04-25 05:03 44.66745 -63.50424 6059 ft 224 kts 58°
2026-04-25 05:03 44.67462 -63.48487 5613 ft 223 kts 59°
2026-04-25 05:04 44.68175 -63.46564 5206 ft 220 kts 59°
2026-04-25 05:04 44.68866 -63.44693 5037 ft 209 kts 58°
2026-04-25 05:04 44.69515 -63.42931 4926 ft 197 kts 58°
2026-04-25 05:04 44.70127 -63.41271 4792 ft 187 kts 58°
2026-04-25 05:05 44.70728 -63.39651 4442 ft 188 kts 58°
2026-04-25 05:05 44.71312 -63.38073 4105 ft 178 kts 57°
2026-04-25 05:05 44.72014 -63.36675 3483 ft 176 kts 40°
2026-04-25 05:05 44.72971 -63.35673 3100 ft 166 kts 30°
2026-04-25 05:06 44.73865 -63.34806 3002 ft 145 kts 30°
2026-04-25 05:06 44.74625 -63.34046 2997 ft 124 kts 30°
2026-04-25 05:06 44.75333 -63.33343 3016 ft 119 kts 29°
2026-04-25 05:06 44.75946 -63.32728 2998 ft 104 kts 28°
2026-04-25 05:07 44.76543 -63.32142 3001 ft 104 kts 28°
2026-04-25 05:07 44.77133 -63.31565 3011 ft 104 kts 27°
2026-04-25 05:07 44.77757 -63.31075 3006 ft 101 kts 12°
2026-04-25 05:07 44.78453 -63.31042 3003 ft 101 kts 352°
2026-04-25 05:08 44.79105 -63.31438 3016 ft 107 kts 333°
2026-04-25 05:08 44.79613 -63.32215 3005 ft 110 kts 314°
2026-04-25 05:08 44.80031 -63.33112 2962 ft 110 kts 315°
2026-04-25 05:08 44.80470 -63.34000 2701 ft 112 kts 316°
2026-04-25 05:09 44.80950 -63.34933 2247 ft 125 kts 315°
2026-04-25 05:09 44.81471 -63.35940 1867 ft 124 kts 312°
2026-04-25 05:09 44.81936 -63.36874 1801 ft 109 kts 312°
2026-04-25 05:09 44.82343 -63.37705 1803 ft 103 kts 313°
2026-04-25 05:10 44.82756 -63.38527 1805 ft 103 kts 313°
2026-04-25 05:10 44.83174 -63.39360 1806 ft 104 kts 313°
2026-04-25 05:10 44.83592 -63.40187 1809 ft 104 kts 313°
2026-04-25 05:10 44.83869 -63.40736 1807 ft 104 kts 313°
2026-04-25 05:11 44.84285 -63.41561 1812 ft 103 kts 313°
2026-04-25 05:11 44.84708 -63.42397 1691 ft 105 kts 313°
2026-04-25 05:11 44.85124 -63.43229 1421 ft 102 kts 311°
2026-04-25 05:12 44.85946 -63.44901 1419 ft 106 kts 310°
2026-04-25 05:12 44.86365 -63.45786 1138 ft 109 kts 309°
2026-04-25 05:12 44.86831 -63.46642 931 ft 110 kts 309°
2026-04-25 05:12 44.87299 -63.47520 655 ft 108 kts 307°
2026-04-25 05:13 44.87717 -63.48344 636 ft 112 kts 300°
2026-04-25 05:13 44.88141 -63.49281 509 ft 114 kts 302°
2026-04-25 05:13 44.88530 -63.50082 456 ft 67 kts 306°
2026-04-25 05:13 44.88754 -63.50500 457 ft 59 kts 307°
2026-04-25 05:14 44.88841 -63.50809 456 ft 3 kts 223°
2026-04-25 05:14 44.88830 -63.50820 455 ft 4 kts 217°
2026-04-25 05:14 44.88797 -63.50854 457 ft 8 kts 213°
2026-04-25 05:15 44.88716 -63.51018 457 ft 13 kts 262°
2026-04-25 05:15 44.88698 -63.51154 457 ft 15 kts 258°
2026-04-25 05:15 44.88728 -63.51266 457 ft 12 kts 353°
2026-04-25 05:15 44.88821 -63.51286 456 ft 15 kts 350°
2026-04-25 05:16 44.88921 -63.51339 456 ft 16 kts 311°
2026-04-25 05:16 44.88933 -63.51440 455 ft 10 kts 219°
2026-04-25 05:16 44.88879 -63.51493 456 ft 0 kts 215°